Weather Roundup
Issued by NWS Chicago, IL

Home | Current Version | Previous Version | Graphics & Text | Print | Product List | Glossary On
Versions: 1 2 3 4 5 6 7 8 9 10 11 12 13 14 15 16 17 18 19 20 21 22 23 24 25 26 27 28 29 30 31 32 33 34 35 36 37 38 39 40 41 42 43 44 45 46 47 48 49 50
000
NZUS59 KLOT 282304
HRRLOT

CHICAGO AREA WEATHER ROUNDUP
NATIONAL WEATHER SERVICE CHICAGO/ROMEOVILLE IL
600 PM CDT SUN MAY 28 2017

NOTE: "FAIR" INDICATES FEW OR NO CLOUDS BELOW 12,000 FEET WITH NO
SIGNIFICANT WEATHER AND/OR OBSTRUCTIONS TO VISIBILITY.

* THESE STATIONS ARE NOT UNDER NWS QUALITY CONTROL. THEY ALSO MAY NOT
  REPORT WEATHER SUCH AS PRECIPITATION OR FOG.

ILZ005-006-012>014-019>023-290000-
NORTHEAST ILLINOIS

CITY           SKY/WX    TMP DP  RH WIND       PRES   REMARKS
OHARE          MOSUNNY   75  52  44 W14       29.73S
MIDWAY         MOSUNNY   76  52  43 W12       29.73S
AURORA         PTSUNNY   75  53  46 W16G23    29.75S
LANSING*       MOSUNNY   75  58  56 NW8       29.74S
JOLIET*        MOSUNNY   77  53  43 W8        29.75F
WAUKEGAN       MOSUNNY   73  54  51 VRB3      29.71S
DUPAGE AIRPORT MOSUNNY   74  54  49 W15       29.73F
WHEELING       SUNNY     75  52  44 NW13      29.74S
KANKAKEE*      SUNNY     78  49  35 W15       29.76F
MORRIS*        SUNNY     76  52  42 W13       29.74S
LEWIS AIRPORT* MOSUNNY   76  57  51 W15       29.75S
NORTHERLY ISL    N/A     60  55  83 E3          N/A
$$

WIZ051-052-058>065-066-070>072-290000-
SOUTHEAST WISCONSIN

CITY           SKY/WX    TMP DP  RH WIND       PRES   REMARKS
MILWAUKEE      MOSUNNY   75  53  46 SW14      29.69F
KENOSHA*       MOSUNNY   73  54  51 W13       29.71S
RACINE*        MOSUNNY   74  52  46 SW9G18    29.72S
WAUKESHA       MOSUNNY   72  54  53 W17       29.71S
$$

INZ001>003-010>013-019-020-290000-
NORTHWEST INDIANA

CITY           SKY/WX    TMP DP  RH WIND       PRES   REMARKS
GARY*          MOSUNNY   72  57  60 CALM      29.75S
MICHIGAN CITY* NOT AVBL
RENSSELAER*    NOT AVBL
VALPARAISO     SUNNY     74  60  61 NW9       29.74S
$$

LMZ740>746-290000-
SOUTHERN LAKE MICHIGAN

STATION/POSITION TIME  SKY/WX   TEMP WIND        PRES    VSBY
                                AIR  DIR/SP/G
                 (UTC)          (F)  (DEG/KT/KT) (MB)    (MI)
HARRISON CRIB    2240            61  140/  8/  9   N/A
BURNHAM HARBOR   2300            60  110/  2/  5   N/A
CALUMET HARBOR   2230            62   60/  5/  5 1007.0R
BURNS HARBOR     2230            60  300/  2/  3 1008.1R
MICHIGAN CITY    2240            59  270/  3/  3   N/A
$$

ABBREVIATIONS USED IN REMARKS
   TC - TEMPERATURE IN CELSIUS
  WCI - WIND CHILL INDEX
   HX - HEAT INDEX
  VSB - VISIBILITY
$$



USA.gov is the U.S. government's official web portal to all federal, state and local government web resources and services.